This is the latest recevied weather packets stored in our database for station/object N8GD. If no packets are shown the sender has not sent any weather packets the latest 10 day(s).
| Time | Temp. | Humidity | Pressure | Rain* | Wind** | Luminosity | Snow |
|---|---|---|---|---|---|---|---|
| 1777567962 | 7.78° C | 77% | 1014.6 hPa | 0 mm | - | - | - |
| 1777567062 | 7.78° C | 76% | 1014.7 hPa | 0 mm | - | - | - |
| 1777566162 | 7.78° C | 77% | 1014.6 hPa | 0 mm | - | - | - |
| 1777565262 | 7.22° C | 78% | 1014.3 hPa | 0 mm | - | - | - |
| 1777564362 | 7.22° C | 79% | 1014.2 hPa | 0 mm | - | - | - |
| 1777564311 | 7.22° C | 79% | 1014.2 hPa | 0 mm | - | - | - |
| 1777563463 | 7.22° C | 77% | 1014.2 hPa | 0 mm | - | - | - |
| 1777562562 | 7.22° C | 79% | 1014.1 hPa | 0 mm | - | - | - |
| 1777561661 | 7.22° C | 79% | 1013.9 hPa | 0 mm | - | - | - |
| 1777560761 | 7.22° C | 79% | 1013.7 hPa | 0 mm | - | - | - |
| 1777560707 | 7.22° C | 80% | 1013.7 hPa | 0 mm | - | - | - |
| 1777559862 | 7.22° C | 80% | 1013.5 hPa | 0 mm | - | - | - |
| 1777558961 | 6.67° C | 82% | 1013.2 hPa | 0 mm | - | - | - |
| 1777558062 | 6.11° C | 85% | 1013.1 hPa | 0 mm | - | - | - |
| 1777557163 | 6.11° C | 85% | 1013 hPa | 0 mm | - | - | - |
| 1777556262 | 6.67° C | 86% | 1012.6 hPa | 0 mm | - | - | - |
| 1777556206 | 6.67° C | 86% | 1012.6 hPa | 0 mm | - | - | - |
| 1777555362 | 6.67° C | 86% | 1012.3 hPa | 0 mm | - | - | - |
| 1777554608 | 6.67° C | 86% | 1012 hPa | 0 mm | - | - | - |
| 1777554462 | 6.67° C | 86% | 1012 hPa | 0 mm | - | - | - |
| 1777553562 | 6.67° C | 87% | 1011.9 hPa | 0 mm | - | - | - |
| 1777552662 | 6.67° C | 88% | 1011.9 hPa | 0 mm | - | - | - |
| 1777551761 | 6.11° C | 89% | 1011.7 hPa | 0 mm | - | - | - |
| 1777550862 | 6.67° C | 89% | 1011.4 hPa | 0 mm | - | - | - |
| 1777549961 | 7.22° C | 89% | 1011.2 hPa | 0 mm | - | - | - |
* Rain latest hour (hover to see other rain measurements)
** Current wind speed in m/s (hover to see current wind gust speed)